Kuchera_Ratio
0.0 0.0 0.0 0.0 0.0 0.0 0.0 0.0 0.0 0.0 0.0 0.0 0.0 0.0 0.0 0.0 0.0 0.0 0.0 0.2 1.3 4.3 1.5 5.0 5.8 4.8 0.0 0.0 0.0 5.1 4.2 10.6 14.7 12.3 10.4 9.4 10.0 13.2 12.4 15.7 17.8 16.1 18.0 14.9
0.0 0.0 0.0 0.0 0.0 0.0 0.0 0.0 0.0 0.0 0.0 4.7 1.1 0.0 0.0 0.0 0.0 0.0 0.0 2.1 4.1 5.4 8.0 9.9 6.3 3.6 1.9 0.0 3.1 10.4 8.9 13.8 16.2 14.5 14.4 13.8 14.2 10.6 8.9 9.4 13.6 17.6 18.9 14.6
0.0 0.0 0.0 0.0 0.0 0.0 0.0 0.0 1.6 0.0 0.0 0.0 0.0 1.5 0.6 0.5 1.4 3.7 4.8 6.1 7.3 7.9 8.8 5.6 9.9 8.7 5.2 2.5 3.7 2.5 5.7 12.6 13.3 14.9 11.7 7.3 14.8 14.4 11.9 12.8 17.9 17.6 15.2 12.2
0.0 0.0 0.0 0.0 0.0 0.0 0.0 0.0 0.7 0.0 5.4 1.1 0.0 0.0 2.2 4.3 5.4 0.7 1.5 6.6 5.6 7.1 12.6 9.7 9.8 5.2 5.0 5.8 3.0 4.5 9.9 15.6 13.5 12.3 11.1 10.7 11.9 12.2 12.0 15.0 14.7 16.2 12.7 11.7
0.0 0.0 0.0 0.0 0.0 0.0 0.0 2.5 1.2 0.0 2.8 0.0 1.5 2.2 5.5 4.2 0.4 0.0 4.7 8.9 4.2 5.2 9.7 6.5 11.2 6.9 7.5 9.9 10.5 11.1 11.7 15.9 13.5 15.8 12.5 12.5 14.4 12.8 12.5 12.3 12.3 13.9 12.9 13.6
0.0 0.0 0.0 0.0 0.0 0.0 0.0 0.0 0.0 1.4 4.1 4.4 6.8 6.7 6.1 3.1 0.3 0.0 0.0 0.8 6.0 8.1 5.5 4.2 4.1 2.8 4.3 5.7 12.5 14.0 14.0 15.8 16.3 17.3 13.2 15.4 19.0 13.9 12.9 13.6 10.5 13.3 15.9 12.1
0.0 0.0 0.0 0.0 0.0 0.0 0.0 0.0 0.0 6.5 11.8 8.1 8.4 4.4 1.2 4.0 4.2 7.1 2.5 2.8 6.8 6.5 3.7 4.9 7.3 8.8 9.1 7.3 7.2 6.9 14.3 15.5 15.6 18.8 16.1 22.6 12.3 9.0 12.1 14.0 13.7 12.2 9.8 7.1
0.0 0.0 0.0 0.0 0.0 0.0 0.0 0.0 0.0 5.4 12.0 6.4 7.4 4.2 4.4 4.9 4.0 7.7 4.8 4.3 7.8 5.3 7.7 11.9 13.7 14.8 12.9 12.9 12.6 11.1 11.7 15.3 17.4 19.0 18.9 15.9 14.1 14.3 14.1 15.9 14.5 14.6 15.1 14.1
0.0 0.0 0.0 0.0 0.0 0.0 0.0 0.0 0.0 1.4 9.7 10.2 5.4 8.6 7.0 11.4 10.3 8.7 5.7 7.5 6.4 9.0 10.2 12.7 16.6 17.8 13.9 15.1 16.2 11.8 12.8 13.9 16.8 18.0 21.5 23.0 16.1 15.6 12.5 13.2 19.5 14.3 13.6 16.0
0.0 0.0 0.0 0.0 0.0 0.0 0.0 0.0 0.0 0.5 9.8 4.4 3.4 9.1 9.3 6.4 7.7 10.8 6.2 10.6 12.5 13.4 14.0 16.6 16.6 16.4 12.7 16.6 16.3 19.0 18.4 18.0 20.0 20.3 20.0 17.9 15.1 14.5 13.2 19.4 17.7 14.2 13.4 15.2
0.0 0.0 0.0 0.0 0.0 0.0 0.0 0.0 0.0 0.0 6.7 5.8 0.5 0.0 5.4 6.6 7.4 12.1 9.9 10.0 13.3 13.7 16.5 14.6 14.4 15.8 14.7 15.2 14.7 15.8 17.3 19.7 20.8 19.4 20.6 22.4 13.5 15.4 17.2 16.2 15.1 13.9 14.2 15.3
0.0 0.0 0.0 0.0 0.0 0.0 0.0 0.0 0.0 0.0 3.5 5.5 0.0 0.0 0.0 0.0 1.4 6.4 7.3 8.2 10.1 11.4 13.8 13.6 12.8 17.2 15.5 16.3 18.2 10.0 17.2 16.1 17.1 16.8 16.7 14.0 13.4 14.4 14.6 14.8 16.3 15.1 15.6 15.5
0.0 0.0 0.0 0.0 0.0 0.0 0.0 0.0 0.0 0.7 6.5 6.4 6.8 5.1 0.0 0.0 0.1 0.0 8.8 10.5 4.0 8.9 6.4 10.4 12.5 14.9 13.4 17.2 16.7 16.6 13.0 13.4 17.0 16.3 13.8 14.2 12.8 14.4 14.2 14.9 14.9 12.9 12.9 14.0
0.0 0.0 0.0 0.0 0.0 0.0 0.0 0.0 0.0 0.5 6.3 12.4 10.0 2.8 4.8 4.8 5.6 6.3 5.2 7.0 8.3 9.4 10.1 12.8 13.8 14.6 11.6 15.2 14.3 15.8 13.2 15.4 16.6 16.8 15.4 13.3 14.1 14.8 14.6 15.4 14.5 13.9 13.7 14.4
0.0 0.0 0.0 0.0 0.0 0.0 0.0 0.0 0.0 0.0 4.8 13.3 11.0 0.7 8.2 9.5 9.6 8.9 8.4 10.7 12.2 12.3 13.7 14.5 15.4 12.7 14.7 16.2 16.4 16.5 13.6 14.9 16.9 17.0 13.8 14.2 15.9 15.5 15.0 15.2 15.6 15.5 15.8 16.6
0.0 0.0 0.0 0.0 0.0 0.0 0.0 7.2 2.7 0.0 0.8 8.4 12.8 9.5 12.7 11.9 10.3 12.3 12.7 12.3 12.5 12.6 13.6 14.4 13.9 14.0 14.5 16.9 17.6 14.9 13.9 13.7 14.2 15.5 14.9 15.5 16.1 16.2 14.5 14.2 15.2 16.0 16.8 17.2
0.0 0.0 0.0 0.0 0.0 0.0 5.1 8.9 3.4 0.0 2.4 10.0 12.6 12.7 14.5 13.0 12.4 11.9 12.6 12.3 13.3 13.1 13.6 15.2 14.6 15.5 15.3 16.8 19.5 14.9 15.2 14.2 13.1 15.2 16.0 17.2 16.8 17.4 15.2 15.3 15.7 15.2 17.3 17.8
0.0 0.0 0.0 0.0 0.0 0.0 4.2 4.5 0.8 1.4 7.6 9.0 13.8 15.2 16.0 13.2 15.8 15.1 13.3 14.5 14.1 14.0 14.6 14.4 16.2 16.0 16.7 20.2 16.0 15.3 15.0 15.5 16.2 16.6 17.0 17.4 16.1 16.0 17.1 16.9 17.5 19.0 19.6 19.4
0.0 0.0 0.0 0.0 5.5 7.9 8.0 1.1 1.7 6.5 8.9 13.4 12.7 16.6 17.2 14.1 15.8 15.2 15.6 14.9 18.1 14.7 18.4 16.3 17.6 18.6 20.5 17.3 17.0 16.2 15.4 17.4 18.1 17.2 16.8 17.0 18.0 18.2 18.2 18.6 18.5 19.4 19.7 19.8
0.0 0.8 7.9 9.5 8.4 1.4 1.6 7.7 11.2 12.3 11.2 12.3 15.2 15.0 16.8 15.3 16.4 16.1 16.7 16.9 20.0 21.8 18.2 17.4 19.4 19.0 15.0 14.9 15.5 16.7 15.8 16.4 17.3 20.1 20.3 20.1 20.1 19.8 18.8 19.0 18.8 18.7 19.3 19.8
4.6 8.4 9.8 8.8 1.8 8.2 11.5 14.2 15.1 15.5 17.8 15.9 16.6 17.4 18.0 15.3 17.8 17.9 16.3 18.9 19.0 23.4 20.0 21.3 19.7 20.9 17.6 16.2 16.8 15.1 16.1 17.0 17.2 17.2 17.1 17.2 17.5 18.8 19.2 19.8 19.9 19.6 19.7 20.4
4.5 6.8 6.8 7.9 11.4 14.2 17.3 17.5 17.3 18.6 17.1 17.3 17.4 17.4 16.9 16.7 15.8 18.0 18.5 20.6 20.4 23.6 18.3 21.4 22.5 18.0 17.4 17.5 17.6 17.3 17.5 17.6 17.9 17.8 18.0 18.1 18.1 18.5 19.2 19.6 20.0 20.6 20.9 21.2
7.7 10.0 12.5 14.2 15.8 19.2 19.6 19.4 17.4 18.0 16.2 17.4 18.2 18.1 17.6 17.8 17.0 18.2 20.1 21.4 22.4 18.3 22.8 22.3 18.5 17.3 18.5 18.7 18.0 18.3 17.7 18.3 18.1 18.3 18.3 18.5 18.6 19.0 19.3 20.1 20.5 21.0 21.3 21.7
11.8 13.8 16.3 18.2 18.5 18.9 16.4 16.0 14.2 16.3 16.4 17.2 17.3 18.0 18.2 18.0 19.6 19.7 21.7 20.6 21.2 24.3 24.0 21.7 17.4 18.0 18.1 18.4 18.2 18.3 18.6 18.5 18.4 18.4 18.6 18.8 19.2 19.5 20.0 20.6 21.1 21.1 21.6 22.2
14.5 13.3 17.9 17.3 14.2 14.7 15.3 14.2 16.3 16.4 14.5 17.1 18.8 18.6 18.4 19.6 21.3 20.9 21.7 23.4 24.2 21.4 21.0 17.2 17.1 17.7 17.8 18.5 18.6 18.5 18.2 18.5 18.7 18.9 19.2 19.4 19.8 20.3 20.7 21.2 21.7 21.8 21.9 22.3
12.8 13.6 15.2 15.0 16.8 15.8 16.7 16.9 15.3 14.8 15.3 15.6 17.0 20.3 21.6 21.3 21.4 22.6 23.3 22.4 22.0 19.5 17.4 16.4 16.9 17.4 17.7 18.1 18.1 18.3 18.6 18.8 19.0 19.4 19.7 20.0 20.3 20.9 21.1 21.7 21.9 21.8 22.2 22.7
14.7 15.0 12.6 15.2 14.5 16.1 16.0 16.8 17.2 14.6 17.4 19.2 17.7 21.0 22.3 20.7 23.1 22.9 19.7 20.6 17.8 16.3 16.4 17.2 17.6 17.6 17.5 17.9 18.2 18.6 18.8 19.0 19.3 19.5 19.9 20.1 20.8 21.4 21.4 21.4 21.6 21.9 22.2 22.4